Location: Hradec Kralove
(50.2170°N, 15.8330°E)
Time: 04:51:35
(UTC+01:00)

N. Korean satellite - Pass Details

Date: 10 December 2022
Orbit: 407 x 441 km, 97.3° (Epoch: 05 February)

Event Time Altitude Azimuth Distance (km) Brightness Sun altitude
Rises 06:42:17 0° 356° (N) 2,508 9.9 -9.5°
Reaches altitude 10° 06:45:10 10° 330° (NNW) 1,616 8.7 -9.0°
Maximum altitude 06:46:56 14° 299° (WNW) 1,402 8.2 -8.8°
Drops below altitude 10° 06:48:40 10° 268° (W) 1,595 8.6 -8.5°
Sets 06:51:29 0° 241° (WSW) 2,448 9.8 -8.1°
